Flag for Netherlands Weather past 2 weeks in Amsterdam, Netherlands

50 °F


Feels Like: 48 °F
Forecast: 51 / 64 °F
Wind: 5 mph from South

Location: Amsterdam Schiphol Airport

Current Time: Oct 4, 2015 at 10:19:18 AM

Latest Report: Oct 4, 2015 at 9:55 AM

Visibility: 0 mi

Pressure: 29.98 "Hg

Humidity: 100%

Dew point: 50 °F

Location of AmsterdamLocation

Historic Weather in Amsterdam — Graph


Amsterdam temperature yesterday

Maximum temperature yesterday: 64 °F (at 4:25 PM)
Minimum temperature yesterday: 45 °F (at 7:55 AM)
Average temperature yesterday: 54 °F

Past Weeks' High & Low Weather Summary

High64 °F (Sep 19, 1:55 PM)100% (Sep 19, 8:55 AM)30.66 "Hg (Sep 19, 8:55 AM)
Low43 °F (Oct 2, 7:55 AM)55% (Sep 29, 5:25 PM)29.47 "Hg (Sep 22, 4:55 PM)
Average55 °F84%30.20 "Hg
* Reported Sep 19 8:25 AM — Oct 4 8:55 AM, Amsterdam, Weather by CustomWeather, © 2015

Note: Actual official high and low records may vary slightly from our data, if they occured in-between our weather recording intervals... More about our weather records


Amsterdam weather history for previous 24 hours

Time TempWeatherWind HumidityBarometerVisibility
8:55 AM
Sun, Oct 4
48 °FFog.5 mph100%29.98 "Hg0 mi
8:25 AM48 °FFog.3 mph100%29.98 "Hg0 mi
7:55 AM48 °FFog.5 mph100%29.95 "Hg0 mi
7:25 AM48 °FFog.3 mph100%29.98 "Hg0 mi
6:55 AM48 °FFog.6 mph100%29.95 "Hg0 mi
5:25 AM46 °FFog.2 mph100%29.95 "Hg0 mi
4:55 AM46 °FFog.2 mph100%29.95 "Hg0 mi
4:25 AM46 °FLight fog.3 mph100%29.95 "Hg0 mi
3:55 AM46 °FFog.6 mph100%29.95 "Hg1 mi
3:25 AM48 °FFog.6 mph100%29.95 "Hg1 mi
2:55 AM46 °FFog.8 mph100%29.95 "Hg1 mi
2:25 AM48 °FFog.7 mph100%29.92 "Hg2 mi
1:55 AM48 °FFog.5 mph100%29.92 "Hg2 mi
1:25 AM50 °FFog.7 mph94%29.92 "Hg2 mi
12:55 AM48 °FFog.5 mph100%29.92 "Hg3 mi
12:25 AM50 °FFog.3 mph100%29.92 "Hg3 mi
11:55 PM
Sat, Oct 3
50 °FClear.5 mph100%29.92 "Hg4 mi
11:25 PM50 °FClear.5 mph94%29.92 "Hg4 mi
10:55 PM52 °FClear.5 mph94%29.92 "Hg4 mi
10:25 PM54 °FClear.7 mph88%29.92 "Hg4 mi
9:55 PM55 °FClear.7 mph88%29.92 "Hg4 mi
9:25 PM55 °FClear.7 mph88%29.92 "Hg4 mi
8:55 PM54 °FClear.5 mph88%29.92 "Hg5 mi
8:25 PM54 °FClear.3 mph88%29.92 "Hg6 mi
7:55 PM55 °FClear.5 mph88%29.92 "Hg6 mi
7:25 PM55 °FClear.7 mph88%29.92 "Hg6 mi
6:55 PM57 °FClear.8 mph82%29.92 "Hg6 mi
6:25 PM61 °FSunny.6 mph72%29.92 "Hg10 mi
5:55 PM63 °FSunny.6 mph68%29.89 "Hg10 mi
5:25 PM63 °FSunny.6 mph68%29.89 "Hg10 mi
4:55 PM63 °FSunny.6 mph68%29.89 "Hg10 mi
4:25 PM64 °FSunny.5 mph64%29.89 "Hg10 mi
3:55 PM63 °FSunny.5 mph64%29.92 "Hg10 mi
3:25 PM63 °FSunny.5 mph68%29.92 "Hg10 mi
2:55 PM61 °FPassing clouds.3 mph72%29.92 "HgN/A
2:25 PM61 °FPassing clouds.5 mph68%29.92 "HgN/A
1:55 PM59 °FPassing clouds.6 mph72%29.95 "HgN/A
1:25 PM59 °FPassing clouds.3 mph72%29.95 "HgN/A
12:55 PM57 °FSunny.2 mph77%29.95 "Hg10 mi
12:25 PM57 °FPassing clouds.3 mph72%29.95 "HgN/A
11:55 AM57 °FPassing clouds.3 mph72%29.95 "HgN/A
11:25 AM55 °FSunny.2 mph77%29.98 "Hg10 mi
10:55 AM54 °FPassing clouds.3 mph82%29.98 "HgN/A
10:25 AM52 °FPassing clouds.6 mph82%29.98 "HgN/A
Weather by CustomWeather, © 2015

See weather overviewHow to use our weather pages